[[{"header":{"parameterUnit":"m.s-1","parameterCategory":2,"la1":30.2991,"la2":30.254,"lo1":-89.0895,"lo2":-89.0444,"dy":0.0017,"dx":0.0017,"nx":28,"ny":28,"refTime":"2023-10-31T21:00:00:Z","depth":"0","parameterNumber":2,"parameterNumberName":"U-component_of_CURRENTS"},"data":[0,0,0,0,0,0,0,0,0,0,0,0,0,0,0,0,0,0,0,0,0,0,0,0,0,0,0,0,0,0,0,0,0,0,0,0,0,0,0,0,0,0,0,0,0,0,0,0,0,0,0,0,0,0,0,0,0,0,0.2415,0.2415,0,0.24,0.2399,0.2399,0.2383,0.2383,0.2383,0.2383,0.2359,0.2359,0.2358,0,0,0,0,0,0,0,0,0,0,0,0,0,0.2439,0.2439,0.2415,0.2415,0.2415,0.24,0.2399,0.2399,0.2383,0.2383,0.2383,0.2383,0.2359,0.2359,0.2358,0,0,0,0,0,0,0,0,0,0,0,0,0,0.2425,0.2439,0.2415,0.2407,0.2406,0.24,0.2399,0.2399,0.2383,0.2383,0.2383,0.2383,0.236,0.2359,0.2358,0.2354,0,0,0.2355,0.2355,0,0,0,0,0,0,0,0,0.2426,0.2424,0.2408,0.2407,0.2406,0.2395,0.2399,0.2384,0.2383,0.239,0.2383,0.2383,0.2372,0.237,0.2365,0.2353,0.2352,0.2355,0.2355,0.2354,0.2354,0,0,0,0,0,0,0,0.2427,0.2425,0.2407,0.2408,0.2407,0.2406,0.2404,0.2396,0.238,0.2389,0.2388,0.2389,0.2371,0.2365,0.2364,0.2352,0.2355,0.2354,0.2354,0.2354,0.2384,0.2385,0,0,0,0,0,0,0.2432,0.2425,0.2408,0.2407,0.2418,0.2406,0.2403,0.2397,0.238,0.2378,0.239,0.2389,0.2367,0.2365,0.2363,0.239,0.2354,0.2354,0.2353,0.2382,0.2384,0.2385,0,0,0,0,0,0,0.2432,0.243,0.2408,0.2418,0.2415,0.2406,0.2399,0.2397,0.2399,0.2381,0.2378,0.2395,0.2367,0.2364,0.2371,0.2388,0.2353,0.2352,0.2381,0.2383,0.2385,0.2424,0,0,0,0,0,0,0.2433,0.243,0.2428,0.2418,0.2415,0.2416,0.2399,0.2397,0.24,0.2399,0.2385,0.2382,0.2366,0.2372,0.237,0.2386,0.2352,0.2379,0.2382,0.2384,0.2421,0.2427,0.2433,0,0,0,0,0,0.2434,0.2431,0.2428,0.2426,0.2412,0.2417,0.2416,0.2407,0.2401,0.2408,0.24,0.2383,0.2386,0.2372,0.2369,0.2386,0.2378,0.2381,0.2384,0.2419,0.2426,0.2433,0,0,0,0,0,0,0.2433,0.2429,0.2426,0.2419,0.2424,0.2415,0.2417,0.2415,0.2413,0.2412,0.2393,0.2391,0.2406,0.2393,0.2378,0.2405,0.2382,0.2384,0.2409,0.2416,0.2422,0.2432,0.2351,0,0,0,0,0,0.2434,0.2434,0.2433,0.2429,0.2433,0.2428,0.2429,0.2427,0.2424,0.2423,0.2413,0.2409,0.2415,0.2413,0.2414,0.2421,0.2429,0.2434,0.2439,0.2444,0.2452,0.2488,0.2498,0.2395,0.2395,0.2395,0,0,0.243,0.243,0.2428,0.243,0.243,0.244,0.2428,0.2435,0.2444,0.2421,0.2428,0.2428,0.2424,0.2437,0.2443,0.2428,0.2479,0.2448,0.2452,0.2458,0.2492,0.2502,0.2511,0.2397,0.2397,0.2396,0,0,0.2429,0.2426,0.243,0.244,0.2451,0.2452,0.2459,0.2459,0.2461,0.247,0.2464,0.2479,0.2471,0.2479,0.2481,0.2519,0.2511,0.2519,0.2548,0.2583,0.2591,0.2599,0.2624,0.2634,0.2517,0.2517,0.2517,0,0.2426,0.2427,0.2433,0.2446,0.2454,0.2461,0.2471,0.2479,0.2481,0.2492,0.2479,0.2501,0.2494,0.2526,0.2539,0.2532,0.2547,0.2519,0.259,0.2598,0.2605,0.2629,0.2639,0.2519,0.2519,0.2519,0.2518,0,0.2432,0.2437,0.2443,0.246,0.2474,0.2484,0.2501,0.2519,0.2521,0.2527,0.2559,0.2557,0.2572,0.2575,0.2565,0.2616,0.2609,0.2596,0.2571,0.2617,0.264,0.265,0.2522,0.2521,0.2521,0.252,0,0,0.2403,0.2439,0.2439,0.2451,0.2482,0.2489,0.2525,0.2552,0.2576,0.2587,0.2616,0.2634,0.2639,0.2644,0.2642,0.2667,0.2727,0.2653,0.2654,0.2675,0.2803,0.2795,0.2804,0.2726,0.2728,0.2729,0.2799,0,0.2402,0.2426,0.2446,0.2468,0.248,0.2512,0.2539,0.2572,0.2598,0.263,0.2652,0.2674,0.2664,0.2674,0.2705,0.2725,0.2755,0.271,0.2758,0.2759,0.2744,0.2816,0.2726,0.278,0.2808,0.281,0.2811,0,0.2392,0.2413,0.2434,0.2472,0.248,0.2497,0.2551,0.258,0.2642,0.2659,0.2705,0.2721,0.2774,0.2748,0.2822,0.2795,0.2807,0.2817,0.2819,0.2805,0.277,0.2738,0.2796,0.2753,0.2826,0.2824,0.2823,0,0.236,0.2397,0.2412,0.2425,0.2474,0.2494,0.2525,0.2587,0.2619,0.2687,0.2719,0.2777,0.2812,0.2848,0.2883,0.2857,0.2958,0.292,0.2926,0.2925,0.2855,0.2845,0.2874,0.2974,0.2974,0.2974,0.2974,0,0.2341,0.2351,0.2397,0.2405,0.2424,0.2473,0.2509,0.2552,0.2623,0.2666,0.2731,0.2786,0.2841,0.2905,0.2916,0.2968,0.2991,0.2955,0.2954,0.2866,0.2857,0.282,0.2793,0.2977,0.2976,0.2976,0.2975,0,0.2295,0.2328,0.2342,0.2392,0.2405,0.242,0.2487,0.2518,0.2597,0.2665,0.2689,0.2808,0.2904,0.2958,0.3026,0.3017,0.298,0.3059,0.2952,0.2938,0.2887,0.2864,0.2779,0.268,0.3076,0.3077,0.3077,0,0.2272,0.2277,0.2316,0.2326,0.2344,0.238,0.2404,0.2483,0.2527,0.268,0.2708,0.2842,0.2916,0.3034,0.306,0.3098,0.3001,0.3019,0.2953,0.2898,0.2872,0.2743,0.2654,0.2873,0.2872,0.2871,0.287,0,0.2229,0.2241,0.2257,0.2277,0.2294,0.2315,0.2366,0.2391,0.25,0.2576,0.2689,0.2769,0.2921,0.2949,0.3025,0.303,0.2886,0.2998,0.2967,0.2752,0.2585,0.2483,0.2811,0.286,0.2861,0.2862,0.2862,0.2863,0.2191,0.2188,0.2211,0.2216,0.2235,0.224,0.2231,0.2304,0.2362,0.2451,0.2598,0.2687,0.2821,0.2932,0.2921,0.289,0.2836,0.2808,0.2797,0.268,0.2545,0.2859,0.289,0.2891,0.2892,0.2893,0.2894,0,0.2138,0.2144,0.2154,0.215,0.213,0.2167,0.2191,0.2172,0.2201,0.2343,0.2429,0.2584,0.265,0.2742,0.2806,0.2714,0.2544,0.2637,0.2433,0.2362,0.2681,0.2636,0.258,0.258,0.258,0.258,0.258,0.258,0.2115,0.2098,0.2096,0.2039,0.2033,0.1976,0.1962,0.196,0.2033,0.2114,0.2215,0.2341,0.2575,0.2735,0.2707,0.2621,0.2393,0.2285,0.2252,0.2507,0.2521,0.2534,0.2486,0.2401,0.24,0.1816,0.1812,0.1809]},{"header":{"parameterUnit":"m.s-1","parameterCategory":2,"la1":30.2991,"la2":30.254,"lo1":-89.0895,"lo2":-89.0444,"dy":0.0017,"dx":0.0017,"nx":28,"ny":28,"refTime":"2023-10-31T21:00:00:Z","depth":"0","parameterNumber":3,"parameterNumberName":"V-component_of_CURRENTS"},"data":[0,0,0,0,0,0,0,0,0,0,0,0,0,0,0,0,0,0,0,0,0,0,0,0,0,0,0,0,0,0,0,0,0,0,0,0,0,0,0,0,0,0,0,0,0,0,0,0,0,0,0,0,0,0,0,0,0,0,-0.0095,-0.0095,0,-0.0136,-0.0137,-0.0137,-0.0163,-0.0163,-0.0163,-0.0163,-0.0221,-0.0222,-0.0224,0,0,0,0,0,0,0,0,0,0,0,0,0,-0.0087,-0.0086,-0.0095,-0.0095,-0.0096,-0.0136,-0.0137,-0.0137,-0.0163,-0.0163,-0.0163,-0.0163,-0.022,-0.0222,-0.0224,0,0,0,0,0,0,0,0,0,0,0,0,0,-0.0106,-0.0086,-0.0095,-0.0112,-0.0114,-0.0136,-0.0137,-0.0137,-0.0163,-0.0163,-0.0163,-0.0163,-0.022,-0.0222,-0.0224,-0.0237,0,0,-0.0231,-0.0232,0,0,0,0,0,0,0,0,-0.0105,-0.0107,-0.0109,-0.0111,-0.0113,-0.0143,-0.0155,-0.0171,-0.0163,-0.0146,-0.0163,-0.0163,-0.0196,-0.02,-0.0209,-0.024,-0.0242,-0.0231,-0.0233,-0.0234,-0.0234,0,0,0,0,0,0,0,-0.0104,-0.0105,-0.0112,-0.011,-0.0112,-0.0135,-0.0137,-0.0158,-0.0171,-0.0147,-0.0149,-0.0152,-0.0197,-0.0207,-0.0211,-0.0243,-0.0231,-0.0233,-0.0235,-0.0235,-0.0281,-0.0281,0,0,0,0,0,0,-0.0093,-0.0104,-0.0111,-0.0113,-0.0108,-0.0135,-0.0138,-0.0135,-0.0171,-0.0176,-0.0152,-0.0153,-0.0203,-0.0208,-0.0213,-0.0215,-0.0234,-0.0236,-0.0237,-0.0281,-0.0281,-0.0281,0,0,0,0,0,0,-0.0093,-0.0094,-0.0109,-0.0109,-0.0112,-0.0134,-0.0131,-0.0135,-0.0141,-0.0173,-0.0179,-0.0153,-0.0203,-0.021,-0.0226,-0.0218,-0.0237,-0.0239,-0.0282,-0.0281,-0.0281,-0.023,0,0,0,0,0,0,-0.0093,-0.0093,-0.0089,-0.0108,-0.0112,-0.0115,-0.0131,-0.0136,-0.0143,-0.0145,-0.0176,-0.0182,-0.0204,-0.0222,-0.0228,-0.0222,-0.0241,-0.0282,-0.0282,-0.0281,-0.0232,-0.0228,-0.0224,0,0,0,0,0,-0.0092,-0.0082,-0.0088,-0.0089,-0.0105,-0.0114,-0.0118,-0.0136,-0.0143,-0.0142,-0.0164,-0.0181,-0.0225,-0.0224,-0.0231,-0.0225,-0.0282,-0.0282,-0.0281,-0.0233,-0.0228,-0.0225,0,0,0,0,0,0,-0.0076,-0.0084,-0.0091,-0.0084,-0.0096,-0.0118,-0.0119,-0.0131,-0.0148,-0.0149,-0.018,-0.0187,-0.0198,-0.022,-0.0218,-0.0238,-0.0256,-0.0257,-0.0217,-0.0213,-0.021,-0.0192,-0.0242,0,0,0,0,0,-0.007,-0.0064,-0.0079,-0.0073,-0.0077,-0.0097,-0.0104,-0.0114,-0.0131,-0.0138,-0.0161,-0.0185,-0.0204,-0.0214,-0.0235,-0.0246,-0.0265,-0.0247,-0.0244,-0.0241,-0.0231,-0.0257,-0.0255,-0.028,-0.028,-0.028,0,0,-0.0063,-0.0066,-0.0064,-0.007,-0.0081,-0.0076,-0.0101,-0.0105,-0.01,-0.0142,-0.0145,-0.0173,-0.0204,-0.0215,-0.0222,-0.0231,-0.0243,-0.024,-0.0237,-0.023,-0.0257,-0.0254,-0.0252,-0.028,-0.028,-0.028,0,0,-0.0043,-0.0048,-0.0036,-0.0041,-0.005,-0.0059,-0.0057,-0.0075,-0.0084,-0.0094,-0.012,-0.0141,-0.0172,-0.019,-0.0204,-0.0194,-0.0224,-0.0204,-0.0172,-0.0197,-0.0195,-0.0193,-0.021,-0.0211,-0.0202,-0.0202,-0.0202,0,-0.0034,-0.0019,-0.0035,-0.0025,-0.0021,-0.0046,-0.003,-0.0043,-0.0065,-0.0068,-0.0087,-0.0129,-0.0158,-0.0167,-0.0166,-0.0185,-0.0203,-0.0183,-0.0191,-0.019,-0.0189,-0.0207,-0.0208,-0.0199,-0.02,-0.02,-0.02,0,-0.0003,0.0007,0.0014,0.0023,0.0024,0.0033,0.0019,0.0016,0.0001,-0.0016,-0.0033,-0.0076,-0.0099,-0.0115,-0.0139,-0.0145,-0.0161,-0.0183,-0.0198,-0.0183,-0.0204,-0.0206,-0.0196,-0.0197,-0.0197,-0.0198,0,0,0.003,0.0035,0.004,0.0054,0.0053,0.0061,0.0068,0.0069,0.0079,0.0042,0.0049,0.0003,-0.0026,-0.0043,-0.0078,-0.0104,-0.0119,-0.0137,-0.014,-0.0147,-0.0168,-0.0181,-0.0185,-0.0143,-0.0143,-0.0144,-0.0183,0,0.0062,0.0094,0.0089,0.0125,0.0144,0.0129,0.0145,0.014,0.012,0.0116,0.0068,0.0054,0.0004,-0.0008,-0.004,-0.0095,-0.0122,-0.0105,-0.0188,-0.019,-0.0198,-0.0187,-0.0164,-0.0197,-0.0185,-0.0186,-0.0186,0,0.0102,0.012,0.016,0.0188,0.0196,0.0212,0.0236,0.0242,0.0222,0.0208,0.0176,0.0134,0.0097,0.0048,-0.0036,-0.0023,-0.0088,-0.0139,-0.0142,-0.0171,-0.0206,-0.0213,-0.0202,-0.0335,-0.0189,-0.0189,-0.0189,0,0.0148,0.0175,0.0213,0.0221,0.0245,0.0262,0.0272,0.0267,0.0286,0.0257,0.0264,0.0204,0.0188,0.0095,-0.0009,-0.0024,-0.0102,-0.0138,-0.0211,-0.0213,-0.0217,-0.0219,-0.0338,-0.02,-0.02,-0.02,-0.02,0,0.0193,0.0224,0.0235,0.0258,0.0313,0.0306,0.0352,0.035,0.0358,0.0397,0.0312,0.0332,0.0199,0.0136,0.0022,-0.009,-0.008,-0.0198,-0.0223,-0.0199,-0.0199,-0.0335,-0.0425,-0.0202,-0.0201,-0.0201,-0.0201,0,0.0237,0.0244,0.0291,0.032,0.0336,0.037,0.0413,0.0445,0.0438,0.0486,0.0484,0.0436,0.0358,0.0217,0.0079,-0.0033,-0.0237,-0.02,-0.0158,-0.0177,-0.0378,-0.0466,-0.0627,-0.0703,-0.0288,-0.0289,-0.0289,0,0.0263,0.0291,0.0339,0.0373,0.0387,0.0432,0.0476,0.0488,0.0529,0.0561,0.06,0.0539,0.0523,0.0309,0.0102,-0.0097,-0.0247,-0.0222,-0.0255,-0.0381,-0.0497,-0.0569,-0.0627,-0.0241,-0.0241,-0.0241,-0.0241,0,0.0314,0.0328,0.0365,0.0433,0.0483,0.0541,0.0597,0.065,0.0684,0.0729,0.0787,0.0775,0.0587,0.0408,0.0126,-0.0025,-0.033,-0.023,-0.0372,-0.0479,-0.0552,-0.0638,-0.0223,-0.0241,-0.0241,-0.0241,-0.0241,-0.0241,0.0354,0.0386,0.0434,0.0499,0.0559,0.0639,0.0693,0.077,0.0858,0.0941,0.0935,0.095,0.0685,0.031,0.0084,-0.0314,-0.0346,-0.0435,-0.0532,-0.0592,-0.067,-0.0251,-0.0293,-0.0293,-0.0293,-0.0293,-0.0294,0,0.0403,0.0437,0.0499,0.0573,0.0638,0.0664,0.0773,0.0836,0.095,0.1047,0.1099,0.0997,0.0653,0.0283,-0.0239,-0.0542,-0.0673,-0.0723,-0.082,-0.0867,-0.0494,-0.0494,-0.0565,-0.0565,-0.0565,-0.0565,-0.0565,-0.0564,0.0432,0.0491,0.0515,0.0622,0.0676,0.0766,0.0829,0.0936,0.1025,0.113,0.1165,0.1171,0.0912,-0.0017,-0.0686,-0.0856,-0.1088,-0.1139,-0.1277,-0.1018,-0.0998,-0.0979,-0.1,-0.1176,-0.1177,-0.1592,-0.1596,-0.1599]}],[{"header":{"parameterUnit":"m.s-1","parameterCategory":2,"la1":30.2991,"la2":30.254,"lo1":-89.0895,"lo2":-89.0444,"dy":0.0017,"dx":0.0017,"nx":28,"ny":28,"refTime":"2023-10-31T21:00:00:Z","depth":"2","parameterNumber":2,"parameterNumberName":"U-component_of_CURRENTS"},"data":[0,0,0,0,0,0,0,0,0,0,0,0,0,0,0,0,0,0,0,0,0,0,0,0,0,0,0,0,0,0,0,0,0,0,0,0,0,0,0,0,0,0,0,0,0,0,0,0,0,0,0,0,0,0,0,0,0,0,0.2392,0.2392,0,0.2384,0.2384,0.2383,0.2374,0.2374,0.2374,0.2374,0.2361,0.236,0.236,0,0,0,0,0,0,0,0,0,0,0,0,0,0.2402,0.2401,0.2392,0.2392,0.2392,0.2384,0.2384,0.2383,0.2374,0.2374,0.2374,0.2374,0.2361,0.236,0.236,0,0,0,0,0,0,0,0,0,0,0,0,0,0.2394,0.2401,0.2392,0.2388,0.2387,0.2384,0.2383,0.2383,0.2374,0.2374,0.2374,0.2374,0.2361,0.236,0.236,0.2356,0,0,0.2358,0.2358,0,0,0,0,0,0,0,0,0.2395,0.2394,0.2388,0.2388,0.2388,0.2381,0.2382,0.2374,0.2374,0.2377,0.2374,0.2374,0.2368,0.2367,0.2363,0.2355,0.2355,0.2358,0.2358,0.2357,0.2357,0,0,0,0,0,0,0,0.2395,0.2394,0.2387,0.2388,0.2388,0.2387,0.2386,0.238,0.2371,0.2377,0.2377,0.2378,0.2368,0.2364,0.2363,0.2354,0.2358,0.2358,0.2357,0.2357,0.2394,0.2395,0,0,0,0,0,0,0.2399,0.2394,0.2387,0.2387,0.2393,0.2387,0.2385,0.2382,0.2371,0.237,0.2378,0.2378,0.2365,0.2363,0.2362,0.2394,0.2357,0.2357,0.2357,0.2393,0.2394,0.2396,0,0,0,0,0,0,0.24,0.2399,0.2388,0.2392,0.2391,0.2387,0.2383,0.2382,0.2388,0.2373,0.2371,0.2387,0.2364,0.2363,0.2373,0.2392,0.2357,0.2356,0.2391,0.2393,0.2395,0.2435,0,0,0,0,0,0,0.24,0.2399,0.24,0.2392,0.2391,0.2398,0.2383,0.2382,0.2389,0.2389,0.238,0.2378,0.2364,0.2374,0.2372,0.2391,0.2356,0.2389,0.2392,0.2394,0.2432,0.2438,0.2443,0,0,0,0,0,0.24,0.2401,0.24,0.24,0.2392,0.2398,0.2398,0.2394,0.239,0.2398,0.2394,0.2378,0.2389,0.2374,0.2372,0.2391,0.2388,0.2391,0.2394,0.2429,0.2437,0.2443,0,0,0,0,0,0,0.24,0.24,0.2399,0.2398,0.2405,0.2398,0.2403,0.2402,0.2404,0.2405,0.2389,0.2388,0.2407,0.2396,0.2381,0.2412,0.2388,0.2391,0.2416,0.2423,0.2428,0.2438,0.2355,0,0,0,0,0,0.2403,0.2406,0.2407,0.2408,0.2413,0.2411,0.2414,0.2414,0.2414,0.2415,0.2408,0.2408,0.2416,0.2417,0.2419,0.243,0.2437,0.2444,0.245,0.2454,0.2463,0.2497,0.2506,0.2405,0.2405,0.2405,0,0,0.2401,0.2404,0.2404,0.241,0.2412,0.2423,0.2413,0.2423,0.2434,0.2413,0.2425,0.2428,0.2425,0.2442,0.245,0.2435,0.2488,0.2458,0.2462,0.2468,0.2501,0.251,0.2519,0.2407,0.2407,0.2407,0,0,0.2404,0.2406,0.2411,0.2422,0.2435,0.2437,0.2445,0.2448,0.2453,0.2465,0.2461,0.2479,0.2476,0.2485,0.2488,0.2528,0.252,0.2529,0.2559,0.2592,0.26,0.2608,0.263,0.2639,0.2527,0.2528,0.2528,0,0.2403,0.2408,0.2415,0.2429,0.2438,0.2447,0.2458,0.2468,0.2474,0.2487,0.2476,0.2503,0.2499,0.2533,0.2547,0.2541,0.2554,0.253,0.2599,0.2607,0.2614,0.2635,0.2644,0.253,0.253,0.2529,0.2529,0,0.2411,0.242,0.2427,0.2446,0.246,0.2472,0.249,0.251,0.2516,0.2523,0.2558,0.2559,0.2578,0.2582,0.2573,0.2625,0.2618,0.2604,0.258,0.2626,0.2645,0.2655,0.2533,0.2532,0.2532,0.2531,0,0,0.2388,0.2424,0.2426,0.2438,0.247,0.2478,0.2515,0.2544,0.2569,0.2584,0.2615,0.2637,0.2644,0.265,0.265,0.2675,0.2733,0.2662,0.2663,0.2681,0.2805,0.2787,0.2795,0.2733,0.2735,0.2736,0.2798,0,0.2389,0.2415,0.2435,0.2458,0.2471,0.2503,0.2531,0.2565,0.2593,0.2627,0.2651,0.2676,0.2668,0.2681,0.2711,0.2731,0.276,0.2718,0.276,0.2762,0.2737,0.2806,0.2562,0.2596,0.2807,0.2808,0.281,0,0.2382,0.2403,0.2425,0.2464,0.2472,0.2491,0.2546,0.2577,0.2638,0.2658,0.2704,0.2722,0.2776,0.2752,0.2824,0.2799,0.281,0.2819,0.2821,0.2798,0.2761,0.2585,0.2605,0.2825,0.2824,0.2823,0.2821,0,0.2352,0.239,0.2407,0.242,0.2469,0.2491,0.2523,0.2585,0.2618,0.2686,0.2719,0.2777,0.2813,0.2847,0.2881,0.2858,0.2951,0.2917,0.2912,0.291,0.2708,0.2686,0.2968,0.2968,0.2968,0.2968,0.2967,0,0.2335,0.2347,0.2393,0.2402,0.2424,0.2472,0.2511,0.2554,0.2625,0.2668,0.2733,0.2786,0.2841,0.2902,0.2912,0.2955,0.2982,0.2939,0.2936,0.2716,0.2695,0.2892,0.2883,0.297,0.2969,0.2969,0.2969,0,0.2292,0.2325,0.2342,0.2392,0.2407,0.2424,0.2492,0.2525,0.2603,0.2669,0.2693,0.2808,0.2896,0.2946,0.301,0.2999,0.3031,0.3031,0.2773,0.2739,0.2955,0.2947,0.3036,0.3036,0.3036,0.3036,0.3036,0,0.227,0.2277,0.2319,0.2329,0.2349,0.2389,0.2413,0.2493,0.2535,0.2682,0.2708,0.2834,0.2896,0.3001,0.3003,0.3026,0.3062,0.2814,0.2731,0.298,0.2968,0.2959,0.2951,0.247,0.2465,0.2462,0.2459,0,0.223,0.2245,0.2261,0.2283,0.2303,0.2325,0.2377,0.24,0.2506,0.2575,0.2678,0.2746,0.2864,0.2797,0.2851,0.2831,0.2792,0.2742,0.3068,0.2507,0.2456,0.2441,0.245,0.2425,0.2429,0.2431,0.2433,0.2434,0.2195,0.2193,0.2218,0.2226,0.2246,0.2252,0.2244,0.2306,0.2357,0.2416,0.2559,0.2575,0.2616,0.2592,0.2529,0.2488,0.2683,0.2541,0.2548,0.256,0.25,0.2454,0.241,0.2413,0.2416,0.2419,0.2421,0,0.2142,0.2152,0.2162,0.2161,0.214,0.2182,0.2204,0.2169,0.218,0.2258,0.2313,0.2172,0.2141,0.218,0.2072,0.2098,0.2028,0.2006,0.1871,0.1909,0.1941,0.1843,0.1582,0.158,0.1577,0.1574,0,0,0.212,0.2103,0.21,0.2045,0.2045,0.1982,0.1968,0.1936,0.1951,0.192,0.1908,0.2044,0.2127,0.1823,0.1796,0.1661,0.1762,0.1599,0.2278,0.2157,0.2184,0.2269,0.2165,0,0,0,0,0]},{"header":{"parameterUnit":"m.s-1","parameterCategory":2,"la1":30.2991,"la2":30.254,"lo1":-89.0895,"lo2":-89.0444,"dy":0.0017,"dx":0.0017,"nx":28,"ny":28,"refTime":"2023-10-31T21:00:00:Z","depth":"2","parameterNumber":3,"parameterNumberName":"V-component_of_CURRENTS"},"data":[0,0,0,0,0,0,0,0,0,0,0,0,0,0,0,0,0,0,0,0,0,0,0,0,0,0,0,0,0,0,0,0,0,0,0,0,0,0,0,0,0,0,0,0,0,0,0,0,0,0,0,0,0,0,0,0,0,0,-0.0037,-0.0038,0,-0.0078,-0.0079,-0.0079,-0.0106,-0.0106,-0.0106,-0.0106,-0.0162,-0.0163,-0.0165,0,0,0,0,0,0,0,0,0,0,0,0,0,-0.0023,-0.0023,-0.0037,-0.0038,-0.0038,-0.0078,-0.0079,-0.0079,-0.0106,-0.0106,-0.0106,-0.0106,-0.0162,-0.0163,-0.0165,0,0,0,0,0,0,0,0,0,0,0,0,0,-0.0044,-0.0023,-0.0037,-0.0056,-0.0058,-0.0078,-0.0079,-0.008,-0.0106,-0.0106,-0.0106,-0.0106,-0.0161,-0.0163,-0.0165,-0.0175,0,0,-0.0172,-0.0172,0,0,0,0,0,0,0,0,-0.0043,-0.0044,-0.0053,-0.0055,-0.0057,-0.0087,-0.0094,-0.0112,-0.0106,-0.0088,-0.0106,-0.0106,-0.0138,-0.0142,-0.015,-0.0178,-0.018,-0.0172,-0.0173,-0.0174,-0.0174,0,0,0,0,0,0,0,-0.0041,-0.0043,-0.0054,-0.0053,-0.0056,-0.0076,-0.0079,-0.0098,-0.0112,-0.009,-0.0092,-0.0095,-0.0139,-0.0148,-0.0151,-0.0181,-0.0172,-0.0174,-0.0175,-0.0176,-0.0218,-0.0217,0,0,0,0,0,0,-0.0032,-0.0041,-0.0053,-0.0055,-0.0049,-0.0076,-0.0079,-0.0077,-0.0112,-0.0117,-0.0095,-0.0096,-0.0144,-0.0149,-0.0153,-0.0156,-0.0174,-0.0176,-0.0177,-0.0218,-0.0218,-0.0217,0,0,0,0,0,0,-0.0032,-0.0033,-0.0051,-0.0049,-0.0053,-0.0076,-0.0074,-0.0078,-0.0085,-0.0115,-0.0121,-0.0097,-0.0144,-0.015,-0.0166,-0.0159,-0.0177,-0.0179,-0.0218,-0.0218,-0.0217,-0.0169,0,0,0,0,0,0,-0.0031,-0.0032,-0.003,-0.0048,-0.0053,-0.0057,-0.0074,-0.0079,-0.0087,-0.0089,-0.0119,-0.0125,-0.0145,-0.0163,-0.0168,-0.0162,-0.018,-0.0218,-0.0218,-0.0218,-0.017,-0.0167,-0.0164,0,0,0,0,0,-0.003,-0.0022,-0.0029,-0.0031,-0.0048,-0.0057,-0.0061,-0.0078,-0.0086,-0.0086,-0.0107,-0.0124,-0.0165,-0.0165,-0.0171,-0.0165,-0.0218,-0.0218,-0.0218,-0.0172,-0.0167,-0.0164,0,0,0,0,0,0,-0.0015,-0.0024,-0.0033,-0.0028,-0.0039,-0.0061,-0.0062,-0.0074,-0.0091,-0.0093,-0.0122,-0.0129,-0.014,-0.016,-0.0159,-0.0177,-0.0194,-0.0195,-0.0158,-0.0154,-0.015,-0.0134,-0.0182,0,0,0,0,0,-0.0009,-0.0005,-0.002,-0.0017,-0.0021,-0.0041,-0.0048,-0.0058,-0.0075,-0.0083,-0.0104,-0.0127,-0.0144,-0.0154,-0.0174,-0.0184,-0.0203,-0.0185,-0.0182,-0.0178,-0.017,-0.0195,-0.0193,-0.0216,-0.0216,-0.0216,0,0,-0.0004,-0.0008,-0.0007,-0.0014,-0.0025,-0.002,-0.0045,-0.005,-0.0046,-0.0086,-0.009,-0.0116,-0.0145,-0.0155,-0.0162,-0.017,-0.0182,-0.0178,-0.0175,-0.0168,-0.0194,-0.0192,-0.019,-0.0216,-0.0216,-0.0216,0,0,0.0015,0.0008,0.0019,0.0014,0.0003,-0.0005,-0.0003,-0.0022,-0.003,-0.004,-0.0066,-0.0086,-0.0115,-0.0131,-0.0144,-0.0134,-0.0163,-0.0143,-0.0112,-0.0137,-0.0135,-0.0133,-0.0152,-0.0153,-0.0141,-0.0141,-0.0141,0,0.0023,0.0036,0.002,0.0029,0.0033,0.0007,0.0023,0.0011,-0.0011,-0.0015,-0.0034,-0.0074,-0.0102,-0.0108,-0.0107,-0.0125,-0.0143,-0.0124,-0.0131,-0.013,-0.013,-0.0149,-0.0151,-0.0139,-0.0139,-0.0139,-0.014,0,0.0051,0.006,0.0067,0.0075,0.0075,0.0084,0.0071,0.0067,0.0052,0.0035,0.0019,-0.0022,-0.0044,-0.0059,-0.0081,-0.0087,-0.0103,-0.0123,-0.0138,-0.0124,-0.0146,-0.0148,-0.0135,-0.0136,-0.0137,-0.0138,0,0,0.0081,0.0086,0.009,0.0104,0.0103,0.0111,0.0119,0.012,0.0129,0.0093,0.01,0.0056,0.0027,0.0011,-0.0023,-0.0047,-0.0063,-0.008,-0.0083,-0.0092,-0.0114,-0.013,-0.0134,-0.0087,-0.0087,-0.0087,-0.013,0,0.0111,0.0142,0.0137,0.0173,0.0191,0.0177,0.0194,0.0189,0.0169,0.0165,0.0119,0.0105,0.0056,0.0045,0.0014,-0.004,-0.0067,-0.0049,-0.0132,-0.0134,-0.0145,-0.0136,-0.0108,-0.0145,-0.0132,-0.0133,-0.0133,0,0.0149,0.0166,0.0205,0.0233,0.0241,0.0257,0.028,0.0287,0.0269,0.0254,0.0223,0.0181,0.0146,0.0098,0.0016,0.0029,-0.0036,-0.0085,-0.0088,-0.012,-0.0153,-0.0159,-0.015,-0.0137,-0.0137,-0.0136,-0.0136,0,0.0191,0.0218,0.0254,0.0262,0.0287,0.0304,0.0314,0.031,0.033,0.0301,0.0307,0.0249,0.0232,0.0141,0.0038,0.0024,-0.0054,-0.0087,-0.0162,-0.0164,-0.0164,-0.0166,-0.0148,-0.0148,-0.0148,-0.0148,-0.0148,0,0.0234,0.0263,0.0275,0.0297,0.0351,0.0346,0.039,0.0389,0.0397,0.0435,0.0353,0.037,0.0241,0.0179,0.0067,-0.0045,-0.0033,-0.0151,-0.0175,-0.0147,-0.0146,-0.016,-0.0161,-0.015,-0.0149,-0.0149,-0.0149,0,0.0274,0.0282,0.0327,0.0357,0.0372,0.0406,0.0448,0.048,0.0473,0.0518,0.0516,0.0468,0.0388,0.0252,0.0116,0.0008,-0.0111,-0.0157,-0.0112,-0.0131,-0.0214,-0.0212,-0.0247,-0.0248,-0.0249,-0.025,-0.025,0,0.0298,0.0325,0.0372,0.0406,0.0419,0.0464,0.0507,0.052,0.056,0.0589,0.0626,0.0562,0.0541,0.0329,0.0129,-0.0066,-0.0102,-0.0182,-0.0211,-0.0204,-0.0224,-0.0221,-0.0218,-0.0192,-0.0192,-0.0192,-0.0192,0,0.0346,0.036,0.0396,0.0462,0.051,0.0568,0.0623,0.0673,0.0707,0.0746,0.0797,0.078,0.0594,0.041,0.0134,-0.0001,-0.0153,-0.019,-0.0189,-0.0171,-0.0155,-0.0174,-0.0172,-0.0192,-0.0192,-0.0192,-0.0192,-0.0192,0.0383,0.0413,0.046,0.0523,0.0582,0.0661,0.0713,0.0784,0.0865,0.0927,0.0922,0.0891,0.0694,0.0342,0.0112,-0.0146,-0.0139,-0.0239,-0.0238,-0.0236,-0.0223,-0.0209,-0.0252,-0.0253,-0.0253,-0.0253,-0.0253,0,0.0428,0.046,0.052,0.0593,0.0655,0.0683,0.0789,0.084,0.0941,0.0994,0.1026,0.0835,0.0635,0.0386,0.0015,-0.0201,-0.0216,-0.0279,-0.0247,-0.0244,-0.0243,-0.0229,-0.0261,-0.0262,-0.0263,-0.0263,0,0,0.0454,0.051,0.0534,0.0637,0.069,0.0775,0.0836,0.0917,0.0969,0.1014,0.0999,0.0979,0.0698,0.043,0.0149,-0.0066,-0.0115,-0.0111,-0.008,-0.0006,-0.0003,-0.0192,-0.0165,0,0,0,0,0]}],[{"header":{"parameterUnit":"m.s-1","parameterCategory":2,"la1":30.2991,"la2":30.254,"lo1":-89.0895,"lo2":-89.0444,"dy":0.0017,"dx":0.0017,"nx":28,"ny":28,"refTime":"2023-10-31T21:00:00:Z","depth":"4","parameterNumber":2,"parameterNumberName":"U-component_of_CURRENTS"},"data":[0,0,0,0,0,0,0,0,0,0,0,0,0,0,0,0,0,0,0,0,0,0,0,0,0,0,0,0,0,0,0,0,0,0,0,0,0,0,0,0,0,0,0,0,0,0,0,0,0,0,0,0,0,0,0,0,0,0,0.1582,0.1583,0,0.1628,0.1629,0.1629,0.1678,0.1679,0.168,0.1681,0.1737,0.1737,0.1738,0,0,0,0,0,0,0,0,0,0,0,0,0,0.1513,0.1514,0.1582,0.1583,0.1584,0.1628,0.1629,0.1629,0.1678,0.1679,0.168,0.1681,0.1736,0.1737,0.1738,0,0,0,0,0,0,0,0,0,0,0,0,0,0.1548,0.1514,0.1582,0.1615,0.1618,0.1628,0.1629,0.1629,0.1678,0.1679,0.168,0.1682,0.1736,0.1737,0.1738,0.1719,0,0,0.1741,0.1742,0,0,0,0,0,0,0,0,0.1546,0.155,0.1609,0.1612,0.1616,0.1651,0.1625,0.166,0.1677,0.1653,0.1681,0.1682,0.1709,0.1712,0.1715,0.1721,0.1724,0.1741,0.1742,0.1743,0.1743,0,0,0,0,0,0,0,0.1543,0.1548,0.1598,0.161,0.1614,0.162,0.1626,0.1632,0.1672,0.1655,0.1659,0.1667,0.1711,0.1714,0.1717,0.1725,0.1741,0.1742,0.1743,0.1743,0.1827,0.1829,0,0,0,0,0,0,0.1541,0.1546,0.1597,0.16,0.1586,0.162,0.1627,0.1637,0.1672,0.1679,0.1666,0.1669,0.1712,0.1716,0.1719,0.1793,0.1743,0.1744,0.1744,0.1826,0.1828,0.1829,0,0,0,0,0,0,0.154,0.1545,0.1595,0.1575,0.1583,0.162,0.163,0.1637,0.1677,0.168,0.1688,0.1704,0.1713,0.1718,0.1759,0.1792,0.1744,0.1745,0.1824,0.1826,0.1828,0.1881,0,0,0,0,0,0,0.1538,0.1545,0.1566,0.1575,0.1584,0.1625,0.163,0.1637,0.1679,0.1684,0.1714,0.1719,0.1714,0.1758,0.176,0.1793,0.1746,0.1822,0.1825,0.1828,0.1877,0.1885,0.1891,0,0,0,0,0,0.1535,0.1553,0.1567,0.1574,0.1607,0.1627,0.1632,0.166,0.168,0.1701,0.1726,0.172,0.1779,0.176,0.1763,0.1796,0.182,0.1824,0.1827,0.1874,0.1883,0.1891,0,0,0,0,0,0,0.1534,0.156,0.1576,0.1602,0.1626,0.1636,0.1664,0.168,0.1715,0.1733,0.1735,0.1742,0.1791,0.1787,0.1766,0.1831,0.18,0.1805,0.1835,0.1844,0.1851,0.1853,0.1747,0,0,0,0,0,0.1543,0.1569,0.1588,0.1615,0.163,0.1654,0.1672,0.1692,0.1716,0.1735,0.1755,0.1779,0.18,0.1819,0.1833,0.1865,0.1866,0.189,0.1898,0.1904,0.1909,0.1938,0.1948,0.1841,0.1841,0.1841,0,0,0.155,0.157,0.1585,0.1618,0.1641,0.1664,0.1669,0.1708,0.1735,0.1733,0.1789,0.1807,0.1815,0.1854,0.1876,0.186,0.1937,0.1908,0.1913,0.1915,0.1943,0.1953,0.1962,0.1844,0.1843,0.1843,0,0,0.1565,0.1597,0.1621,0.1643,0.1685,0.1696,0.1716,0.1748,0.1777,0.182,0.1831,0.1871,0.1902,0.1916,0.1924,0.1979,0.1974,0.1992,0.2029,0.2058,0.2067,0.2075,0.2095,0.2105,0.1995,0.1995,0.1995,0,0.1576,0.1604,0.1631,0.1657,0.1681,0.1715,0.1741,0.1769,0.1814,0.184,0.185,0.1916,0.1928,0.197,0.1995,0.1995,0.201,0.1994,0.2067,0.2075,0.2082,0.2101,0.211,0.1998,0.1998,0.1997,0.1997,0,0.1595,0.1632,0.165,0.1693,0.1722,0.1754,0.1789,0.1834,0.1873,0.1895,0.1962,0.1982,0.2022,0.2035,0.2033,0.2094,0.2088,0.2072,0.2042,0.2095,0.2112,0.2121,0.2002,0.2001,0.2,0.1999,0,0,0.158,0.1649,0.1659,0.1687,0.1746,0.1766,0.1824,0.1874,0.1918,0.197,0.202,0.2069,0.2093,0.2105,0.2116,0.2143,0.2208,0.2138,0.2138,0.2153,0.2277,0.2143,0.2139,0.221,0.2212,0.2213,0.2271,0,0.1589,0.1639,0.1674,0.1727,0.1754,0.1808,0.1851,0.1906,0.196,0.2017,0.2058,0.2109,0.2115,0.2146,0.2179,0.2203,0.2234,0.2194,0.2228,0.2229,0.2098,0.2145,0.2219,0.2277,0.2279,0.2281,0.2282,0,0.1587,0.1624,0.1676,0.1744,0.1762,0.1803,0.1886,0.1933,0.2017,0.2058,0.2125,0.2157,0.2225,0.2211,0.2289,0.2269,0.2285,0.2293,0.2295,0.2155,0.2109,0.2213,0.2297,0.2296,0.2295,0.2294,0.2293,0,0.1545,0.1621,0.1665,0.1689,0.177,0.1816,0.1869,0.1954,0.2,0.2098,0.2141,0.2215,0.2267,0.2304,0.2343,0.2328,0.2411,0.2383,0.2275,0.2266,0.2346,0.2337,0.2431,0.2431,0.243,0.243,0.243,0,0.1519,0.1559,0.1657,0.1679,0.1736,0.1805,0.1877,0.194,0.203,0.208,0.2168,0.2214,0.2297,0.2352,0.2367,0.2351,0.2436,0.2287,0.2272,0.2368,0.2361,0.2352,0.2343,0.2432,0.2432,0.2432,0.2431,0,0.1459,0.1526,0.1581,0.1682,0.1718,0.1763,0.1875,0.1918,0.2021,0.2093,0.2127,0.2239,0.2308,0.2367,0.2429,0.237,0.2369,0.2341,0.2452,0.2441,0.2199,0.2191,0.2215,0.2211,0.2207,0.2204,0.2201,0,0.1428,0.1454,0.1571,0.1607,0.1661,0.1742,0.1788,0.1898,0.1941,0.209,0.2105,0.222,0.228,0.2254,0.2335,0.2345,0.232,0.2298,0.2232,0.2195,0.2178,0.2176,0.2174,0.2196,0.2195,0.2194,0.2193,0,0.1368,0.1427,0.1475,0.155,0.1612,0.1664,0.1744,0.1758,0.188,0.1992,0.2022,0.2055,0.2128,0.2167,0.2192,0.2198,0.2295,0.226,0.2266,0.2204,0.2172,0.2158,0.216,0.218,0.2182,0.2183,0.2184,0,0.1329,0.1347,0.1422,0.1471,0.1545,0.1561,0.1615,0.1656,0.1705,0.1854,0.1869,0.1992,0.2105,0.2094,0.2124,0.2113,0.2076,0.1993,0.2013,0.2028,0.1941,0.187,0.1777,0,0,0,0,0,0.1279,0.1289,0.1335,0.1377,0.1443,0.1482,0.157,0.1624,0.174,0.1706,0.1774,0.1828,0.1867,0.194,0.1891,0.2061,0.2097,0.1997,0.2014,0.2111,0.2125,0.204,0,0,0,0,0,0,0.1246,0.129,0.13,0.1286,0.1297,0.1348,0.1399,0.1479,0.1461,0.1589,0.1617,0.1716,0.1784,0.1872,0.1855,0.1877,0.1849,0.2076,0.2071,0.2102,0.2116,0.2127,0.2044,0,0,0,0,0]},{"header":{"parameterUnit":"m.s-1","parameterCategory":2,"la1":30.2991,"la2":30.254,"lo1":-89.0895,"lo2":-89.0444,"dy":0.0017,"dx":0.0017,"nx":28,"ny":28,"refTime":"2023-10-31T21:00:00:Z","depth":"4","parameterNumber":3,"parameterNumberName":"V-component_of_CURRENTS"},"data":[0,0,0,0,0,0,0,0,0,0,0,0,0,0,0,0,0,0,0,0,0,0,0,0,0,0,0,0,0,0,0,0,0,0,0,0,0,0,0,0,0,0,0,0,0,0,0,0,0,0,0,0,0,0,0,0,0,0,0.0058,0.0058,0,0.0031,0.0031,0.0031,0.0013,0.0013,0.0013,0.0013,-0.0023,-0.0023,-0.0024,0,0,0,0,0,0,0,0,0,0,0,0,0,0.0074,0.0074,0.0058,0.0058,0.0058,0.0031,0.0031,0.0031,0.0013,0.0013,0.0013,0.0013,-0.0022,-0.0023,-0.0024,0,0,0,0,0,0,0,0,0,0,0,0,0,0.0059,0.0074,0.0058,0.0046,0.0044,0.0031,0.0031,0.003,0.0013,0.0013,0.0013,0.0013,-0.0022,-0.0023,-0.0024,-0.0029,0,0,-0.0028,-0.0029,0,0,0,0,0,0,0,0,0.006,0.0058,0.0048,0.0047,0.0045,0.0025,0.0023,0.001,0.0013,0.0025,0.0013,0.0013,-0.0007,-0.001,-0.0014,-0.0031,-0.0032,-0.0028,-0.0029,-0.003,-0.003,0,0,0,0,0,0,0,0.0061,0.0059,0.0048,0.0048,0.0046,0.0034,0.0032,0.0021,0.001,0.0024,0.0023,0.002,-0.0008,-0.0013,-0.0015,-0.0033,-0.0028,-0.003,-0.003,-0.0031,-0.0054,-0.0054,0,0,0,0,0,0,0.0066,0.006,0.0048,0.0047,0.0052,0.0034,0.0032,0.0032,0.001,0.0007,0.002,0.0019,-0.0011,-0.0014,-0.0017,-0.0015,-0.003,-0.0031,-0.0032,-0.0054,-0.0054,-0.0054,0,0,0,0,0,0,0.0066,0.0065,0.005,0.0053,0.005,0.0034,0.0034,0.0031,0.0027,0.0007,0.0004,0.0019,-0.0011,-0.0015,-0.0024,-0.0017,-0.0031,-0.0033,-0.0054,-0.0054,-0.0054,-0.0017,0,0,0,0,0,0,0.0067,0.0065,0.0067,0.0053,0.005,0.0046,0.0034,0.0031,0.0026,0.0024,0.0005,0.0002,-0.0011,-0.0022,-0.0026,-0.0019,-0.0034,-0.0054,-0.0054,-0.0054,-0.0018,-0.0016,-0.0013,0,0,0,0,0,0.0067,0.0073,0.0068,0.0066,0.0053,0.0047,0.0044,0.0032,0.0026,0.0027,0.0013,0.0002,-0.0023,-0.0023,-0.0027,-0.002,-0.0054,-0.0054,-0.0054,-0.002,-0.0016,-0.0013,0,0,0,0,0,0,0.0081,0.0072,0.0065,0.0068,0.0059,0.0044,0.0044,0.0034,0.0024,0.0023,0.0004,-0.0001,-0.0007,-0.002,-0.0019,-0.0027,-0.004,-0.0041,-0.0013,-0.001,-0.0007,0.0005,-0.0035,0,0,0,0,0,0.0085,0.0087,0.0074,0.0076,0.0074,0.0059,0.0054,0.0046,0.0035,0.003,0.0016,0.0002,-0.0008,-0.0014,-0.0026,-0.003,-0.0048,-0.0029,-0.0026,-0.0024,-0.0017,-0.0039,-0.0037,-0.0053,-0.0053,-0.0053,0,0,0.009,0.0085,0.0086,0.0079,0.0072,0.0076,0.0056,0.0052,0.0057,0.0028,0.0029,0.001,-0.0008,-0.0012,-0.0015,-0.0021,-0.003,-0.0023,-0.0021,-0.0015,-0.0038,-0.0037,-0.0035,-0.0052,-0.0052,-0.0052,0,0,0.0104,0.0098,0.0105,0.0102,0.0093,0.0087,0.0088,0.0074,0.0069,0.0064,0.0046,0.0033,0.0016,0.0007,-0.0,0.0009,-0.0016,0.0003,0.0028,0.0007,0.0008,0.0009,-0.0015,-0.0017,0.0006,0.0006,0.0006,0,0.0111,0.0119,0.0106,0.0113,0.0116,0.0096,0.0108,0.0101,0.0085,0.0084,0.007,0.0045,0.0027,0.0027,0.0029,0.0016,-0.0003,0.0019,0.0011,0.0011,0.0011,-0.0014,-0.0016,0.0008,0.0007,0.0007,0.0007,0,0.013,0.0137,0.0142,0.0148,0.0149,0.0155,0.0147,0.0146,0.0135,0.0123,0.0115,0.0087,0.0074,0.0064,0.0049,0.0045,0.0028,0.0016,0.0005,0.0015,-0.0012,-0.0015,0.001,0.001,0.0009,0.0009,0,0,0.0148,0.0155,0.0158,0.017,0.017,0.0176,0.0186,0.0188,0.0196,0.0172,0.0179,0.0151,0.0129,0.012,0.0097,0.0077,0.0057,0.005,0.0048,0.003,0.0005,-0.0007,-0.0011,0.0041,0.004,0.004,-0.0016,0,0.0169,0.0193,0.0191,0.022,0.0234,0.0227,0.0245,0.0243,0.0228,0.0228,0.0197,0.0189,0.0153,0.0146,0.0122,0.0077,0.0051,0.0073,-0.0006,-0.0008,-0.0016,-0.0014,0.004,-0.0018,-0.0019,-0.002,-0.002,0,0.0192,0.0207,0.0238,0.0266,0.0273,0.0289,0.031,0.0319,0.0309,0.0299,0.0277,0.0246,0.022,0.0185,0.0113,0.0128,0.0071,0.0029,0.0026,0.0002,-0.0025,-0.0032,-0.0026,-0.0025,-0.0025,-0.0025,-0.0024,0,0.0218,0.0243,0.0273,0.028,0.0306,0.0324,0.0338,0.0338,0.0355,0.0337,0.0341,0.0296,0.0283,0.0208,0.0119,0.0114,0.0036,0.0016,-0.005,-0.0052,-0.0041,-0.0041,-0.004,-0.004,-0.004,-0.004,-0.004,0,0.0244,0.0268,0.0288,0.0305,0.0351,0.0355,0.0395,0.0398,0.041,0.0436,0.0378,0.0384,0.0288,0.0229,0.0138,0.0039,0.0046,-0.0044,-0.0065,-0.0025,-0.0023,-0.0044,-0.0043,-0.0042,-0.0042,-0.0041,-0.0041,0,0.0264,0.0277,0.0315,0.0348,0.0365,0.0395,0.0441,0.0465,0.0467,0.0498,0.0497,0.0454,0.0376,0.0268,0.015,0.0071,-0.003,-0.007,-0.0016,-0.0034,-0.011,-0.0107,-0.0148,-0.0149,-0.015,-0.015,-0.0151,0,0.0275,0.0297,0.0346,0.0375,0.0392,0.0436,0.0474,0.0496,0.0522,0.0541,0.0562,0.05,0.0453,0.0287,0.0164,-0.0013,-0.0043,-0.0102,-0.0111,-0.0103,-0.012,-0.0116,-0.0112,-0.0152,-0.0152,-0.0152,-0.0152,0,0.0298,0.0316,0.0346,0.0404,0.0449,0.0501,0.0549,0.0577,0.0608,0.0615,0.0614,0.0524,0.044,0.0298,0.0161,0.0033,-0.0066,-0.011,-0.0109,-0.0119,-0.0108,-0.0123,-0.0119,-0.0155,-0.0155,-0.0154,-0.0154,0,0.0314,0.0336,0.0378,0.0429,0.0488,0.0543,0.057,0.0606,0.0637,0.0655,0.0658,0.056,0.0511,0.0322,0.0198,0.0069,0.0028,-0.0025,-0.003,-0.0029,0.0017,0.0049,0.0036,0,0,0,0,0,0.0326,0.035,0.0398,0.0453,0.0511,0.0546,0.0613,0.0635,0.0669,0.0676,0.0668,0.0587,0.0411,0.0339,0.0208,0.0165,-0.0008,0.0004,-0.0073,-0.0168,-0.0166,-0.0134,0,0,0,0,0,0,0.0333,0.0375,0.0395,0.0462,0.0501,0.0568,0.0612,0.0639,0.0641,0.0658,0.0571,0.0538,0.0368,0.0485,0.02,0.0162,0.0091,-0.0073,-0.0077,-0.017,-0.0167,-0.0165,-0.0131,0,0,0,0,0]}]]